Retour au catalogue

CZ-6A DEB

ActifPO
NORAD 60675·DEBRIS·🇨🇳 China

Lancé Aug 6, 2024 depuis Taiyuan Satellite Launch Center

Loading…

Prochains Passages (prochaines 24 heures)

TLE

FraisSource: Space-Track

Époque: Sep 14, 2026, 07:52 UTC

1 60675U 24140CC  26257.32782413  .00000119  00000-0  57516-4 0  9996
2 60675  89.0084 267.0985 0081089 286.6271  72.6021 14.10899260108030

Suivez CZ-6A DEB en temps réel avec AllMySat

Download on the App Store